Dublin, Ireland

11:25 PM GMT on November 24, 2017 (GMT +0000)
Dublin International

Weather History for EIDW - August, 2012

Change the Weather History Date:

Wednesday, August 15, 2012

  Actual Average Record
Temperature  
Mean Temperature 60 °F -  
Max Temperature 64 °F 64 °F 73 °F (1997)
Min Temperature 57 °F 50 °F 43 °F (2016)
Degree Days  
Heating Degree Days 4    
Growing Degree Days 10 (Base 50)    
Moisture  
Dew Point 57 °F    
Average Humidity 89    
Maximum Humidity 100    
Minimum Humidity 72    
Precipitation  
Precipitation 0.35 in 0.09 in - ()
Sea Level Pressure  
Sea Level Pressure 29.47 in    
Wind  
Wind Speed 16 mph ()    
Max Wind Speed 32 mph    
Max Gust Speed 47 mph    
Visibility 6.3 miles    
Events Rain    
Averages and records for this station are not official NWS values.
T = Trace of Precipitation, MM = Missing Value Source: Averaged Metar Reports

Daily Weather History Graph

Daily Weather History Graph

Search for Another Location

Airport or City:

Trip Planner

Search our weather history database for the weather conditions in past years. The results will help you decide how hot, cold, wet, or windy it might be!

Date:

Astronomy

Aug. 15, 2012 Rise Set
Actual Time 6:05 AM IST 8:52 PM IST
Civil Twilight 5:25 AM IST 9:31 PM IST
Nautical Twilight 4:33 AM IST 10:23 PM IST
Astronomical Twilight 3:27 AM IST 11:27 PM IST
Moon 3:37 AM IST (8/15) 7:21 PM IST (8/15)
Length of Visible Light 16h 06m
Length of Day
14h 47m
Waning Crescent, 5% of the Moon is Illuminated
Aug 15
Waning Crescent
Aug 17
New
Aug 24
First Quarter
Aug 31
Full
Sep 8
Last Quarter

Hourly Weather History & Observations

Time (IST) Temp. Dew Point Humidity Pressure Visibility Wind Dir Wind Speed Gust Speed Precip Events Conditions
12:00 AM 59.0 °F 57.2 °F 94% 29.74 in 6.2 mi East 6.9 mph - N/A   Mostly Cloudy
12:30 AM 59.0 °F 57.2 °F 94% 29.74 in 6.2 mi East 10.4 mph - N/A   Mostly Cloudy
1:00 AM 59 °F 57 °F 92% 29.74 in 19 mi East 11.2 mph - -   Partly Cloudy
1:00 AM 59.0 °F 57.2 °F 94% 29.71 in 6.2 mi East 12.7 mph - N/A   Mostly Cloudy
1:30 AM 60.8 °F 57.2 °F 88% 29.71 in 6.2 mi East 15.0 mph - N/A   Mostly Cloudy
2:00 AM 59.0 °F 57.2 °F 94% 29.71 in 6.2 mi East 15.0 mph - N/A Rain Light Rain
2:30 AM 59.0 °F 57.2 °F 94% 29.68 in 6.2 mi East 13.8 mph - N/A   Mostly Cloudy
3:00 AM 60.8 °F 57.2 °F 88% 29.68 in 6.2 mi East 11.5 mph - N/A   Mostly Cloudy
3:30 AM 60.8 °F 59.0 °F 94% 29.65 in 6.2 mi ESE 13.8 mph - N/A Rain Light Rain
4:00 AM 60.8 °F 59.0 °F 94% 29.65 in 6.2 mi ESE 11.5 mph - N/A   Mostly Cloudy
4:30 AM 60.8 °F 59.0 °F 94% 29.62 in 6.2 mi ESE 13.8 mph - N/A Rain Light Rain
5:00 AM 60.8 °F 59.0 °F 94% 29.62 in 6.2 mi ESE 15.0 mph - N/A   Mostly Cloudy
6:00 AM 60.8 °F 59.0 °F 94% 29.59 in 6.2 mi East 13.8 mph - N/A   Mostly Cloudy
6:30 AM 60.8 °F 59.0 °F 94% 29.56 in 6.2 mi East 16.1 mph - N/A   Mostly Cloudy
7:00 AM 62 °F 58 °F 82% 29.57 in 19 mi East 17.9 mph - -   Partly Cloudy
7:00 AM 62.6 °F 57.2 °F 82% 29.56 in 6.2 mi East 17.3 mph - N/A   Mostly Cloudy
7:30 AM 60.8 °F 57.2 °F 88% 29.56 in 6.2 mi East 11.5 mph - N/A   Mostly Cloudy
8:00 AM 60.8 °F 59.0 °F 94% 29.53 in 6.2 mi East 13.8 mph - N/A   Mostly Cloudy
8:30 AM 64.4 °F 59.0 °F 83% 29.50 in 6.2 mi East 21.9 mph - N/A   Mostly Cloudy
9:00 AM 64.4 °F 59.0 °F 83% 29.50 in 6.2 mi East 21.9 mph - N/A   Mostly Cloudy
9:30 AM 62.6 °F 59.0 °F 88% 29.47 in 6.2 mi East 21.9 mph - N/A   Mostly Cloudy
10:00 AM 62.6 °F 59.0 °F 88% 29.44 in 6.2 mi East 23.0 mph - N/A   Mostly Cloudy
10:30 AM 60.8 °F 59.0 °F 94% 29.44 in 3.7 mi East 23.0 mph 36.8 mph N/A Rain Light Rain
11:00 AM 60.8 °F 59.0 °F 94% 29.42 in 3.1 mi East 21.9 mph - N/A Rain Light Rain
11:30 AM 60.8 °F 59.0 °F 94% 29.42 in 3.7 mi East 20.7 mph - N/A Rain Light Rain
12:00 PM 60.8 °F 59.0 °F 94% 29.42 in 3.7 mi East 19.6 mph - N/A Rain Light Rain
12:30 PM 60.8 °F 59.0 °F 94% 29.39 in 2.8 mi SE 28.8 mph 44.9 mph N/A Rain Rain
1:00 PM 61 °F 60 °F 97% 29.40 in 3 mi SE 26.8 mph - - Rain Rain
1:00 PM 60.8 °F 60.8 °F 100% 29.39 in 3.1 mi SE 26.5 mph - N/A Rain Rain
1:30 PM 60.8 °F 60.8 °F 100% 29.39 in 3.7 mi SE 25.3 mph - N/A Rain Rain
2:00 PM 60.8 °F 60.8 °F 100% 29.39 in 4.3 mi SE 27.6 mph - N/A Rain Light Rain
2:30 PM 60.8 °F 59.0 °F 94% 29.39 in 5.6 mi SE 20.7 mph 32.2 mph N/A Rain Light Rain
3:00 PM 60.8 °F 59.0 °F 94% 29.36 in 6.2 mi SE 23.0 mph - N/A Rain Light Rain
3:30 PM 60.8 °F 57.2 °F 88% 29.36 in 6.2 mi SE 23.0 mph 35.7 mph N/A Rain Light Rain
4:00 PM 60.8 °F 57.2 °F 88% 29.36 in 6.2 mi SSE 24.2 mph 38.0 mph N/A   Mostly Cloudy
4:30 PM 62.6 °F 55.4 °F 77% 29.36 in 6.2 mi SSE 18.4 mph - N/A   Mostly Cloudy
5:00 PM 62.6 °F 55.4 °F 77% 29.36 in 6.2 mi SSE 19.6 mph 31.1 mph N/A   Mostly Cloudy
5:30 PM 62.6 °F 53.6 °F 72% 29.36 in 6.2 mi South 16.1 mph - N/A   Mostly Cloudy
6:00 PM 62.6 °F 55.4 °F 77% 29.36 in 6.2 mi SSE 21.9 mph - N/A   Mostly Cloudy
6:30 PM 60.8 °F 55.4 °F 82% 29.33 in 6.2 mi SSE 21.9 mph 33.4 mph N/A   Mostly Cloudy
7:00 PM 61 °F 55 °F 73% 29.34 in 11 mi SE 24.6 mph - -   Partly Cloudy
7:00 PM 60.8 °F 55.4 °F 82% 29.33 in 6.2 mi SE 24.2 mph - N/A   Mostly Cloudy
7:30 PM 60.8 °F 55.4 °F 82% 29.33 in 6.2 mi SE 29.9 mph 41.4 mph N/A   Mostly Cloudy
8:00 PM 59.0 °F 55.4 °F 88% 29.30 in 5.6 mi SE 32.2 mph 47.2 mph N/A Rain Light Rain Showers
8:30 PM 59.0 °F 55.4 °F 88% 29.30 in 5.6 mi SSE 27.6 mph 39.1 mph N/A Rain Light Rain Showers
9:00 PM 57.2 °F 55.4 °F 94% 29.30 in 5.6 mi SSE 24.2 mph - N/A Rain Light Rain Showers
9:30 PM 59.0 °F 55.4 °F 88% 29.30 in 6.2 mi SSE 23.0 mph - N/A Rain Light Rain Showers
10:00 PM 59.0 °F 57.2 °F 94% 29.30 in 6.2 mi SSE 23.0 mph - N/A   Partly Cloudy
10:30 PM 59.0 °F 55.4 °F 88% 29.30 in 6.2 mi SSE 18.4 mph - N/A Rain Light Rain Showers
11:00 PM 59.0 °F 53.6 °F 82% 29.33 in 6.2 mi South 18.4 mph - N/A   Scattered Clouds
11:30 PM 60.8 °F 53.6 °F 77% 29.33 in 6.2 mi SSE 17.3 mph - N/A   Mostly Cloudy